Vertical_Velocity
3 -9 -3 -5 1 -7 -5 -5 -4 -9 -9 -23 9 -3 -3 -2 -0 -2 -1 1 -2 0 -0 -2 -2 -2 -2
-3 -1 -7 -0 -1 -4 -2 -2 -3 -9 3 -13 41 -9 0 -0 -4 -7 -2 3 -2 -1 1 -1 -3 -2 -1
-16 1 -7 -2 -6 -2 -4 -6 -2 -0 10 -12 44 -5 -4 4 -4 -3 -3 -2 -2 0 1 -2 -4 -0 -1
-2 -9 -2 -1 -4 -4 -3 -2 -4 2 -11 14 145 -10 9 2 2 -0 -6 -1 -0 -2 4 -2 -4 1 -1
-4 -6 -2 -5 -4 -1 -3 -9 -1 4 1 -8 -3 32 12 10 4 0 -5 -2 0 -3 4 -2 -4 -2 1
-3 -3 -3 -3 -4 -0 -1 -4 -8 3 -14 -9 -7 89 -5 4 -2 1 2 -8 -2 -4 4 -4 0 -4 -2
6 -3 -5 -0 1 -2 -1 -1 -3 -5 -4 -24 10 24 28 2 2 -1 1 -5 -4 -4 1 -1 1 -2 -2
-2 -8 -0 0 1 -0 -0 -2 -1 -10 9 -17 -1 -12 110 -9 -2 1 0 2 -7 -0 0 0 2 -0 -1
-0 -3 1 -3 4 0 -6 3 -9 -3 -2 6 -11 -20 71 -1 2 9 2 2 -7 -3 -0 -3 4 5 2
-4 -2 1 -4 4 1 6 1 -3 -4 -8 -1 -3 2 2 39 -3 8 12 6 -4 -2 -3 2 2 7 -3
-4 -3 -1 -4 2 -4 -0 24 -9 -5 1 6 8 6 -8 38 26 3 -3 10 8 8 0 -1 -1 5 -8
-3 0 -4 -4 -1 -5 -3 -1 -3 -2 -1 10 -2 6 -4 15 5 33 9 6 2 -6 2 3 17 9 9
-0 -1 -4 1 1 1 2 -1 -2 -6 -6 -4 3 3 0 2 29 30 -5 7 7 -3 -1 1 -14 -4 1
-5 -2 -1 1 -2 3 -3 1 1 -8 2 2 -0 -1 -1 -5 5 46 8 -33 14 -2 2 4 13 5 -1
-1 -2 -1 -0 -3 2 -4 1 1 -3 -3 -5 -3 2 -4 2 -3 3 19 -1 7 -6 3 2 6 -2 2
-0 1 -0 1 -3 3 3 3 -1 -3 -1 2 7 1 3 -5 0 20 15 2 -3 -8 3 -4 -0 -1 3
1 0 -0 1 2 -1 2 4 -2 -5 -2 3 3 -2 3 -7 -1 -5 10 2 -1 -3 -1 -5 -7 -5 -5
Height
1454 1452 1450 1449 1449 1451 1450 1450 1450 1451 1453 1458 1458 1471 1482 1490 1498 1506 1515 1519 1525 1531 1535 1541 1546 1549 1552
1451 1449 1447 1444 1441 1442 1443 1444 1443 1448 1445 1446 1452 1463 1473 1482 1491 1500 1510 1515 1521 1526 1532 1537 1543 1547 1550
1442 1443 1442 1440 1436 1435 1436 1436 1437 1438 1439 1438 1442 1451 1463 1474 1483 1493 1503 1510 1515 1522 1527 1534 1540 1544 1548
1439 1437 1437 1436 1434 1430 1428 1431 1432 1433 1438 1437 1443 1445 1454 1466 1475 1486 1496 1503 1510 1517 1523 1529 1536 1543 1547
1434 1434 1432 1431 1430 1427 1424 1424 1425 1425 1424 1428 1433 1434 1444 1457 1468 1478 1488 1496 1504 1512 1519 1525 1533 1540 1545
1428 1428 1426 1427 1427 1425 1423 1422 1421 1423 1422 1426 1432 1429 1431 1445 1459 1471 1480 1489 1498 1506 1514 1520 1528 1536 1542
1421 1420 1420 1421 1422 1421 1420 1420 1418 1418 1419 1418 1426 1425 1424 1435 1450 1463 1473 1481 1491 1499 1508 1515 1524 1531 1538
1413 1413 1413 1414 1416 1416 1415 1414 1416 1416 1417 1413 1415 1415 1423 1426 1442 1453 1466 1475 1484 1493 1503 1511 1520 1527 1534
1404 1405 1406 1407 1410 1411 1410 1410 1408 1406 1409 1410 1411 1415 1418 1415 1433 1447 1459 1468 1478 1488 1497 1507 1515 1523 1530
1394 1395 1397 1398 1401 1404 1406 1406 1405 1405 1405 1407 1408 1412 1411 1410 1423 1439 1452 1463 1473 1483 1492 1502 1510 1516 1523
1384 1385 1387 1388 1391 1393 1396 1400 1399 1400 1401 1399 1402 1405 1410 1410 1411 1427 1440 1455 1467 1478 1488 1495 1504 1508 1514
1376 1376 1377 1379 1383 1385 1386 1387 1389 1390 1393 1393 1394 1397 1404 1403 1406 1415 1431 1444 1456 1467 1480 1490 1498 1504 1511
1368 1368 1370 1373 1376 1377 1377 1378 1380 1380 1383 1385 1388 1390 1396 1399 1402 1406 1420 1431 1444 1455 1469 1478 1486 1494 1499
1361 1362 1364 1365 1367 1370 1370 1372 1372 1372 1374 1375 1381 1385 1389 1394 1397 1402 1407 1414 1431 1445 1459 1470 1478 1485 1492
1353 1355 1356 1356 1358 1363 1364 1365 1366 1368 1367 1368 1373 1379 1381 1387 1388 1391 1397 1408 1421 1434 1448 1458 1467 1474 1483
1345 1347 1348 1349 1349 1353 1358 1359 1360 1362 1363 1364 1367 1369 1373 1375 1377 1382 1391 1396 1412 1425 1437 1446 1456 1465 1475
1336 1337 1339 1342 1343 1343 1345 1350 1353 1353 1354 1353 1356 1361 1366 1366 1369 1371 1378 1386 1400 1413 1424 1433 1445 1454 1464